Lapse_Rate
7.1 6.7 6.4 6.5 7.2 6.9 6.7 7.5 7.6 7.8 8.1 7.3 7.2 7.2 6.9 6.2 5.9 5.4 6.1 6.2 6.2 6.5 7.5 7.6 7.2 7.1 7.0 6.6 6.0 5.5 5.9 5.9 5.9 5.9 6.2 6.3 6.2 5.9 6.3 6.7 7.1 7.5 7.6 7.4
7.3 7.2 7.0 6.7 6.8 6.6 6.6 7.0 7.1 7.2 8.1 7.1 6.7 7.4 7.6 7.1 5.9 5.6 5.7 6.5 7.2 7.9 7.2 6.8 6.7 6.5 6.5 6.4 6.1 6.0 5.7 5.7 5.8 5.9 6.0 6.0 6.2 6.2 6.4 6.6 7.2 7.3 7.3 7.3
6.8 7.4 7.2 6.7 6.4 6.2 6.5 6.2 6.6 6.6 6.4 6.8 6.7 7.1 7.8 7.4 6.7 5.9 5.3 5.4 6.7 7.2 7.1 6.9 6.6 6.2 6.1 6.1 6.0 6.0 6.1 5.7 5.6 5.6 5.8 5.7 6.3 6.2 6.4 6.6 6.9 7.1 7.1 7.3
7.0 7.4 7.0 6.8 6.9 6.5 6.4 6.4 6.3 6.3 7.1 6.9 6.6 6.8 7.4 7.0 6.7 6.3 5.9 5.7 6.5 7.0 7.1 7.1 6.9 6.4 6.2 6.1 6.1 6.0 6.0 5.8 5.5 5.7 5.6 5.8 6.2 6.1 5.9 5.8 6.2 6.9 7.0 7.1
7.4 7.2 7.7 6.9 7.0 6.8 6.8 6.4 5.8 6.0 6.8 6.7 6.6 6.7 6.6 6.5 6.6 7.1 6.3 7.1 7.3 7.1 7.2 7.3 7.3 6.9 6.4 6.4 6.3 6.2 6.1 5.9 5.7 5.3 5.5 5.8 5.8 5.7 5.4 5.4 5.8 5.9 6.5 6.8
7.4 7.3 7.4 6.0 7.4 7.3 7.5 6.3 6.0 6.2 6.5 6.9 6.9 6.7 5.8 6.1 6.4 6.7 6.7 6.6 6.6 7.1 7.0 7.0 7.0 6.9 6.6 6.4 6.3 6.3 6.2 5.9 5.8 5.7 5.1 5.5 5.7 5.8 5.6 5.6 5.6 5.6 5.9 6.4
7.4 7.2 7.1 6.5 7.0 7.2 6.5 5.5 6.0 6.2 6.1 6.2 6.3 6.0 5.5 5.8 5.4 5.6 6.2 6.3 6.5 7.0 6.8 6.4 6.5 6.5 6.4 6.3 6.3 6.2 6.2 5.9 5.8 5.8 5.4 5.2 5.5 5.7 5.9 5.8 5.6 5.4 5.9 6.0
7.1 7.0 6.4 6.5 6.9 6.5 5.7 5.7 6.0 6.3 6.2 5.8 5.6 5.4 5.5 5.7 5.4 5.4 5.8 6.3 6.5 6.5 6.6 6.5 6.6 6.4 6.2 6.1 6.2 6.2 6.2 6.1 5.8 5.8 5.7 5.6 5.6 5.4 5.3 5.2 5.3 5.4 5.7 5.7
6.8 6.7 6.1 5.9 6.0 5.9 5.9 5.7 5.8 6.1 6.3 6.1 6.0 5.9 5.3 5.1 5.5 5.9 6.4 6.7 6.9 6.8 6.7 6.7 6.6 6.4 6.4 6.3 6.2 6.1 6.1 6.1 6.1 6.0 6.0 5.8 5.5 5.8 5.2 4.6 5.4 5.3 5.4 5.1
7.1 6.9 6.4 6.2 5.8 5.8 6.0 5.9 5.7 5.8 6.1 6.3 6.5 6.3 5.8 5.4 5.9 6.1 6.3 6.6 6.7 6.8 6.8 6.7 6.7 6.6 6.6 6.6 6.5 6.3 6.4 6.3 6.2 6.2 6.2 6.2 5.6 5.3 4.8 4.9 5.3 5.0 5.4 5.4
7.1 6.9 6.8 6.4 6.2 6.0 5.9 5.9 6.0 6.1 6.0 6.2 6.3 6.3 6.2 6.1 6.2 6.2 6.4 6.5 6.6 6.5 6.6 6.8 6.8 6.8 6.7 6.7 6.7 6.6 6.5 6.6 6.6 6.6 6.3 6.0 5.8 5.3 5.4 5.0 5.2 5.3 5.3 5.1
7.3 7.0 7.0 6.7 6.4 6.1 5.9 5.8 5.9 5.9 5.9 6.0 6.0 6.3 6.3 6.3 6.6 6.7 6.7 6.8 6.8 6.8 6.9 7.0 7.2 7.1 6.9 6.8 6.7 6.8 6.8 6.7 6.7 6.6 6.5 6.1 6.2 6.1 5.4 5.0 5.1 5.2 5.0 5.1
7.4 7.2 7.0 6.7 6.7 6.3 5.9 5.9 5.9 5.9 6.5 6.2 6.3 6.3 6.3 6.2 6.4 6.4 6.6 6.8 6.9 6.8 7.0 7.0 7.2 6.9 6.8 6.8 6.7 6.8 6.8 6.7 6.6 6.6 6.3 6.2 6.0 5.9 5.2 5.3 4.9 4.8 4.9 4.6
7.5 7.5 7.2 7.0 6.9 6.9 6.3 6.3 6.2 5.8 5.9 6.2 6.2 6.3 6.2 6.2 6.1 6.3 6.5 6.6 6.7 6.7 6.6 6.7 6.7 6.7 6.7 6.9 6.9 6.9 6.8 6.7 6.7 6.7 6.5 6.1 5.5 5.4 5.3 5.2 5.6 5.7 5.0 4.9
7.3 7.3 7.3 7.0 6.8 6.8 6.9 6.6 6.5 6.3 5.9 5.9 6.0 6.1 6.2 6.1 6.1 6.2 6.4 6.5 6.5 6.6 6.6 6.6 6.6 6.7 6.8 6.8 6.9 6.8 6.7 6.6 6.5 6.6 6.6 6.5 6.2 5.8 5.4 5.7 5.3 5.5 5.7 5.8
7.2 7.1 7.0 6.8 6.7 6.7 7.0 6.5 6.4 6.4 6.1 5.7 5.5 5.8 6.0 6.1 6.0 6.1 6.3 6.4 6.5 6.5 6.5 6.5 6.6 6.7 6.8 6.9 6.9 6.9 6.8 6.7 6.5 6.5 6.4 6.4 6.5 6.4 6.1 5.9 5.7 5.5 5.5 5.7
6.9 6.9 6.8 6.6 6.7 6.9 6.6 6.4 6.3 6.3 6.3 6.0 5.7 5.8 6.0 6.0 6.1 6.2 6.2 6.3 6.2 6.3 6.3 6.3 6.4 6.4 6.5 6.6 6.6 6.7 6.7 6.6 6.4 6.1 6.0 6.0 6.0 6.1 6.1 5.9 5.8 5.6 5.5 5.4
6.8 6.7 6.6 6.5 6.9 6.8 6.6 6.4 6.2 6.3 6.3 6.3 6.0 5.8 5.7 5.9 5.9 6.1 6.3 6.1 6.2 6.2 6.2 6.2 6.2 6.1 6.3 6.4 6.4 6.4 6.4 6.4 6.3 6.1 5.8 5.6 5.5 5.5 5.5 5.5 5.5 5.4 5.4 5.3
6.5 6.5 6.3 6.2 6.3 6.3 6.5 6.7 6.6 6.6 6.5 6.5 6.4 6.3 6.3 6.3 6.1 6.2 6.3 6.3 6.2 6.2 6.3 6.3 6.2 6.0 6.0 6.1 6.2 6.1 6.1 6.1 5.9 5.8 5.4 5.3 5.2 5.1 5.0 5.0 4.9 4.9 4.9 4.9
6.9 6.8 6.5 6.2 6.2 6.3 6.4 6.4 6.5 6.7 6.8 6.8 6.7 6.6 6.5 6.5 6.5 6.3 6.0 6.0 6.2 6.2 6.1 6.1 6.1 5.9 5.8 5.8 5.9 5.7 5.6 5.5 5.4 5.2 5.0 4.8 4.7 4.6 4.5 4.4 4.4 4.4 4.3 4.3
6.7 6.7 6.7 6.6 6.5 6.3 6.3 6.2 6.2 6.1 6.4 6.7 6.8 6.8 6.8 6.7 6.7 6.9 6.7 6.1 6.0 6.2 6.0 6.0 5.8 5.6 5.6 5.6 5.5 5.4 5.2 5.1 5.0 4.8 4.7 4.5 4.3 4.2 4.2 4.1 4.1 4.1 4.0 4.0
6.7 6.7 6.8 6.9 6.9 6.5 6.4 6.4 6.3 6.2 6.2 6.2 6.4 6.5 6.5 6.5 6.5 6.3 6.4 6.3 6.2 5.9 5.8 5.8 5.9 5.6 5.5 5.4 5.1 4.9 4.7 4.5 4.4 4.2 4.1 4.1 4.0 4.0 4.0 4.2 4.3 4.5 4.3 4.1
6.6 6.5 6.4 6.4 6.3 6.5 6.7 6.6 6.4 6.2 6.2 6.2 6.0 6.0 6.0 6.0 6.2 6.0 5.6 5.7 5.5 5.1 5.1 5.2 5.1 5.1 5.0 4.7 4.4 4.2 4.1 3.9 3.8 3.8 3.8 3.8 3.8 3.9 4.0 4.1 4.0 4.0 4.1 3.9
6.5 6.4 6.4 6.3 6.2 6.1 6.1 6.1 6.0 5.9 5.7 5.6 5.5 5.4 5.4 5.2 4.9 4.8 4.9 4.8 4.9 5.1 5.1 4.9 4.7 4.5 4.5 4.5 4.3 4.0 3.8 3.8 3.6 3.6 3.8 3.8 3.9 3.8 3.8 3.8 3.8 3.8 3.9 3.7
6.6 6.2 6.0 6.0 6.0 6.0 5.8 5.6 5.5 5.5 5.5 5.4 5.3 5.2 5.2 5.3 5.2 5.0 4.9 5.0 5.0 4.8 4.8 4.7 4.6 4.4 4.4 4.4 4.3 4.1 3.9 3.7 3.7 3.7 3.7 3.8 3.7 3.7 3.7 3.6 3.7 3.6 3.6 3.6
6.0 5.9 5.7 5.5 5.4 5.3 5.2 5.1 4.9 4.8 4.9 4.7 4.6 4.6 4.5 4.5 4.5 4.5 4.6 4.5 4.5 4.5 4.4 4.3 4.2 4.1 4.0 3.9 3.7 3.7 3.6 3.6 3.6 3.6 3.7 3.6 3.7 3.8 3.7 3.6 3.5 3.4 3.4 3.4
5.5 5.4 5.4 5.2 5.0 4.8 4.6 4.5 4.4 4.4 4.3 4.3 4.2 4.2 4.3 4.3 4.3 4.3 4.2 4.2 4.2 4.3 4.2 4.1 4.0 3.9 3.9 3.7 3.6 3.6 3.6 3.6 3.6 3.6 3.5 3.5 3.6 3.6 3.5 3.6 3.5 3.5 3.4 3.4
Wind_Speed
16 19 22 23 18 20 19 15 8 9 9 13 10 13 12 15 17 6 19 19 17 9 9 7 7 8 9 10 11 10 9 9 9 8 7 2 2 7 7 7 7 7 6 5
21 17 19 19 9 18 14 19 13 15 4 12 8 10 15 18 22 25 11 17 19 16 11 8 7 7 10 9 10 11 11 10 10 9 9 10 4 7 8 8 6 7 7 7
16 16 20 2 10 16 5 20 17 15 15 2 11 12 13 15 20 16 15 14 15 16 12 10 7 6 7 9 10 11 11 11 11 10 9 8 9 4 8 8 8 8 8 7
9 12 4 6 12 18 12 20 15 17 18 8 13 11 12 9 12 12 11 12 14 13 13 11 9 7 8 9 10 10 11 11 11 11 10 8 9 9 8 3 9 7 7 8
2 5 11 17 17 19 12 8 20 17 17 11 11 14 15 11 11 12 13 12 14 14 13 12 11 11 11 11 9 10 10 10 11 11 10 9 8 8 8 7 3 7 7 8
2 5 1 9 21 25 16 4 24 19 16 12 7 10 7 12 13 15 13 13 14 15 13 14 13 11 11 9 10 11 10 9 10 10 10 10 9 7 6 4 7 5 6 6
3 2 3 17 17 16 9 7 19 16 10 11 10 8 12 15 16 15 15 15 15 14 12 12 11 11 11 9 11 10 9 9 9 10 9 9 8 6 8 6 5 6 8 8
4 4 4 20 6 7 7 8 10 12 14 12 11 13 13 14 15 16 16 16 13 11 12 12 13 10 12 11 10 9 9 9 10 10 8 8 8 8 8 6 7 7 7 9
3 3 3 6 7 8 8 8 10 11 11 12 13 14 14 13 13 13 14 13 13 11 12 13 13 12 12 11 10 9 9 10 11 11 11 11 11 9 6 6 2 7 7 6
2 5 3 8 9 10 7 9 10 11 12 11 10 10 11 11 10 10 11 12 11 10 12 11 12 12 11 11 9 10 10 10 9 10 12 13 10 9 9 8 5 7 4 8
2 3 3 6 10 10 9 8 10 9 12 11 9 11 11 10 9 10 11 10 10 10 10 12 12 12 12 12 9 9 9 9 9 8 10 10 13 11 8 11 7 7 5 6
4 2 1 2 5 6 9 8 7 8 9 10 9 10 10 9 9 10 10 11 10 11 10 10 11 12 12 11 9 8 8 7 7 7 7 7 8 12 27 24 28 26 20 12
2 0 1 2 2 3 5 9 1 5 8 9 8 8 10 9 8 8 6 8 9 8 9 9 11 10 10 9 8 10 8 7 6 8 7 7 7 8 10 16 27 26 25 23
4 3 0 3 3 1 4 9 7 8 9 8 10 7 7 7 7 8 7 6 6 6 8 8 9 9 9 8 7 8 8 10 7 6 7 7 7 7 7 8 10 10 17 16
5 1 4 1 5 4 8 8 9 10 10 9 9 8 8 8 8 7 6 6 6 8 7 7 7 9 9 7 6 7 4 4 4 6 6 7 7 8 8 8 8 8 8 11
5 10 9 9 8 8 10 9 8 8 9 8 7 8 7 7 6 6 6 6 7 7 8 7 6 8 8 6 6 4 4 7 6 6 6 8 7 7 7 8 8 8 7 7
4 5 7 7 8 8 9 8 7 8 8 8 7 7 7 6 6 7 4 4 5 5 4 5 6 6 6 7 5 3 3 5 7 6 7 6 6 7 7 6 8 8 8 8
10 10 9 8 7 7 8 8 8 7 7 8 5 5 5 5 4 4 5 4 4 5 8 6 5 6 6 6 5 4 4 4 5 6 6 6 7 6 6 7 8 8 8 8
11 9 9 8 7 7 7 7 7 6 6 7 4 3 3 5 5 3 4 6 6 4 6 9 9 8 7 6 5 3 4 4 4 5 5 6 6 5 5 6 7 7 7 6
9 8 7 7 7 7 6 5 5 5 5 6 5 5 4 4 4 3 2 5 5 5 7 8 9 7 7 5 5 3 4 5 6 5 5 5 6 6 6 7 6 6 6 6
6 6 5 5 4 4 4 5 4 6 6 6 6 5 2 3 6 5 6 5 8 8 7 8 7 6 5 4 3 2 3 4 4 4 4 3 5 6 6 6 6 5 4 6
3 3 2 2 2 2 3 3 4 4 5 5 5 7 5 4 3 5 4 4 4 8 4 4 5 8 4 6 3 3 3 4 4 4 4 4 4 4 4 5 6 6 6 5
3 3 2 1 1 2 1 1 2 3 3 3 4 6 4 1 2 4 3 4 3 4 4 5 7 8 9 5 4 5 6 5 5 5 5 5 5 4 4 4 4 6 6 6
2 1 1 2 2 1 2 2 2 1 3 1 3 3 3 3 4 2 1 3 2 4 4 6 8 12 9 5 5 5 6 6 6 5 6 6 5 5 6 5 5 5 6 7
2 1 2 5 3 1 1 1 2 2 2 3 3 3 3 2 3 2 2 2 6 5 4 7 9 8 5 5 6 6 6 5 4 4 5 5 5 5 4 5 5 4 4 5
3 2 2 2 2 2 2 3 2 3 3 2 2 2 2 2 2 2 2 3 4 4 4 4 5 4 6 7 7 7 6 5 6 6 6 5 5 4 4 4 5 5 6 8
1 2 4 2 2 2 2 3 3 2 3 2 2 2 2 2 3 3 4 3 2 3 3 4 4 4 4 4 4 5 4 5 8 6 5 4 4 4 6 6 7 9 11 12
Wind_Direction
280 281 289 292 326 338 298 272 267 317 334 7 12 31 71 62 31 302 119 112 105 104 78 54 39 41 38 27 16 15 34 37 19 8 356 327 189 163 163 161 173 171 179 187
294 298 293 312 314 336 5 21 356 344 348 343 59 41 61 66 52 27 64 105 98 87 92 80 61 42 40 29 22 22 26 25 19 15 9 11 305 183 165 167 170 164 173 183
288 305 314 4 350 353 334 33 20 357 327 74 73 76 83 75 82 64 33 43 79 79 71 78 89 72 53 40 27 28 22 15 10 10 12 359 351 356 174 176 175 181 170 185
281 304 322 23 347 339 354 39 19 347 353 26 88 85 77 79 98 104 99 66 54 58 51 33 60 77 64 46 37 29 23 14 3 355 1 6 12 4 353 217 180 177 178 190
250 315 271 32 336 331 325 50 11 346 347 4 65 76 66 58 66 74 69 69 64 56 44 31 27 60 50 42 31 31 21 11 1 355 349 358 12 355 343 341 271 174 181 183
349 286 311 354 328 321 316 77 357 352 345 354 84 68 35 30 40 46 64 64 63 55 42 31 18 52 50 40 31 29 21 9 4 356 349 350 349 350 327 333 312 109 83 50
287 290 103 355 338 326 48 326 338 341 347 37 53 51 38 28 34 36 38 58 61 56 46 35 25 48 42 34 31 22 21 13 12 7 352 347 334 352 350 355 43 64 84 61
331 353 350 7 9 39 316 313 339 345 4 47 65 61 52 49 25 27 31 36 51 55 49 39 32 38 36 35 27 27 24 18 19 16 6 360 358 0 27 22 53 51 69 65
15 41 64 33 29 354 349 333 347 348 8 30 39 53 50 44 32 31 30 26 31 41 44 38 32 26 28 17 30 30 32 27 23 25 22 18 23 10 32 24 63 70 44 54
176 128 137 62 29 11 7 353 350 356 13 38 58 56 52 42 29 28 33 29 23 33 38 37 31 28 21 14 36 35 38 33 31 35 36 31 31 17 25 14 39 80 85 75
254 41 347 82 25 1 355 7 2 6 24 28 43 48 48 41 35 31 31 28 26 29 32 32 30 25 16 19 29 39 39 35 35 40 44 47 52 44 49 42 43 61 55 77
218 120 206 7 51 352 349 355 13 12 18 28 50 49 55 48 40 39 33 29 30 30 32 31 31 29 16 17 26 42 48 40 33 46 49 48 53 59 54 59 60 67 69 82
138 233 268 304 155 19 351 352 44 42 38 24 33 67 62 53 41 44 46 38 31 29 26 18 26 22 11 11 26 44 53 52 50 48 50 54 55 63 72 64 70 70 76 79
194 185 39 285 246 354 11 27 46 59 55 41 27 55 76 71 48 28 40 39 24 22 25 15 17 15 2 11 33 43 47 50 63 64 63 62 59 57 61 67 69 71 62 75
28 170 170 200 52 75 62 35 42 41 38 36 31 31 63 65 47 38 27 18 22 23 15 12 7 10 358 2 30 40 38 44 46 81 84 83 75 74 73 74 70 70 65 52
6 55 42 53 36 25 61 42 41 32 31 28 25 22 62 68 52 42 35 28 35 27 12 2 5 351 357 7 25 32 33 49 57 58 63 65 63 64 61 59 68 66 63 58
53 44 47 44 21 25 45 42 36 29 23 13 40 32 37 59 47 18 57 28 35 13 3 8 346 342 357 16 31 17 20 54 63 69 72 73 72 70 72 77 78 72 69 61
74 66 64 49 23 29 33 30 20 32 14 0 40 40 31 38 31 30 25 13 10 17 11 353 349 352 3 10 31 41 47 58 65 76 80 81 83 80 78 79 80 83 78 69
57 63 68 56 32 45 38 23 22 21 1 343 61 51 35 29 12 26 26 31 10 4 3 4 4 3 2 12 37 47 64 65 65 73 88 89 86 78 80 85 87 83 83 81
60 52 65 69 51 40 31 26 17 43 14 11 28 34 17 4 359 62 77 59 7 358 27 12 5 355 345 357 33 46 61 68 79 72 75 84 88 90 89 83 84 82 83 81
74 65 45 48 74 43 29 21 32 31 17 17 17 342 331 27 32 35 39 50 5 7 15 4 359 347 331 359 30 49 60 75 77 83 85 79 89 89 88 92 94 96 91 94
134 124 100 33 97 55 17 24 33 30 33 24 8 8 34 59 53 53 42 45 4 358 351 351 346 340 1 29 33 46 56 72 73 73 78 84 86 92 90 98 102 101 98 89
97 149 158 53 94 166 356 56 344 41 35 24 17 9 24 59 56 58 27 7 1 360 356 0 352 7 25 32 38 51 57 63 67 72 78 80 83 86 84 80 84 98 99 102
126 79 199 228 282 109 173 241 241 248 178 202 45 39 40 55 20 23 38 18 93 32 12 17 20 33 35 33 49 52 56 64 69 74 83 81 79 81 83 85 85 82 88 86
183 179 343 27 108 54 1 275 182 245 173 93 80 48 43 43 127 273 34 20 37 39 17 9 24 31 33 39 49 49 47 54 62 69 71 75 75 83 82 93 98 98 89 94
67 123 136 58 95 60 25 16 88 35 62 77 28 51 19 21 51 59 47 47 43 47 33 18 23 30 43 45 46 46 39 48 60 66 71 72 76 80 82 81 78 83 92 97
4 44 112 78 45 67 36 57 72 49 43 15 95 14 41 45 43 51 46 35 41 49 45 31 27 37 45 50 52 49 47 53 53 63 67 68 64 72 81 90 96 104 112 116